Location: Biltmore Gardens
(41.6070°N, 83.4666°W)
Time: 04:57:38
(UTC+00:00)

Transit 2A - All Passes

Search period start: 14 April 2021 00:00
Search period end: 24 April 2021 00:00
Orbit: 602 x 957 km, 66.7° (Epoch: 13 April)

Date Brightness Start Highest point End Pass type
(mag) Time Alt. Az. Time Alt. Az. Time Alt. Az.
14 Apr - 12:49:54 10° SSE 12:53:35 21° ESE 12:57:05 10° ENE daylight
14 Apr - 14:31:52 10° SW 14:36:29 43° NW 14:40:47 10° NNE daylight
14 Apr - 21:35:11 10° N 21:38:24 19° NE 21:41:42 10° E daylight
14 Apr - 23:17:27 10° NW 23:21:46 51° WSW 23:26:20 10° S daylight
15 Apr - 12:17:07 10° SE 12:19:35 14° ESE 12:21:57 10° ENE daylight
15 Apr - 13:57:25 10° SW 14:02:15 65° WNW 14:06:45 10° NNE daylight
15 Apr - 21:01:41 10° NNE 21:03:59 14° NE 21:06:20 10° ENE daylight
15 Apr - 22:43:11 10° NNW 22:47:37 80° WSW 22:52:21 10° SSE daylight
16 Apr - 13:23:11 10° SSW 13:28:05 83° ESE 13:32:36 10° NNE daylight
16 Apr - 15:09:17 10° WNW 15:11:44 14° NW 15:14:06 10° N daylight
16 Apr - 22:09:02 10° NNW 22:13:27 66° ENE 22:18:08 10° SE daylight
16 Apr - 23:54:06 10° W 23:56:05 13° WSW 23:58:08 10° SW daylight
17 Apr - 12:49:10 10° SSW 12:53:57 54° ESE 12:58:21 10° NE daylight
17 Apr - 14:33:55 10° W 14:37:19 19° NW 14:40:35 10° N daylight
17 Apr - 21:35:00 10° NNW 21:39:14 43° NE 21:43:42 10° SE daylight
17 Apr - 23:18:48 10° WNW 23:22:05 20° WSW 23:25:31 10° SSW daylight
18 Apr - 12:15:25 10° S 12:19:50 35° ESE 12:23:58 10° NE daylight
18 Apr - 13:58:56 10° WSW 14:02:59 27° NW 14:06:49 10° N daylight
18 Apr - 21:01:04 10° N 21:04:57 29° NE 21:09:02 10° ESE daylight
18 Apr - 22:44:06 10° NW 22:48:02 30° WSW 22:52:12 10° S daylight
19 Apr - 11:41:58 10° SSE 11:45:46 23° ESE 11:49:21 10° ENE daylight
19 Apr - 13:24:12 10° SW 13:28:41 39° NW 13:32:55 10° NNE daylight
19 Apr - 20:27:15 10° N 20:30:37 21° NE 20:34:07 10° E daylight
19 Apr - 22:09:39 10° NW 22:13:56 47° WSW 22:18:31 10° S daylight
20 Apr - 11:09:03 10° SE 11:11:45 15° ESE 11:14:20 10° ENE daylight
20 Apr - 12:49:42 10° SW 12:54:27 59° WNW 12:58:53 10° NNE daylight
20 Apr - 19:53:40 10° N 19:56:14 15° NE 19:58:52 10° E daylight
20 Apr - 21:35:21 10° NW 21:39:49 74° WSW 21:44:35 10° SSE daylight
21 Apr - 12:15:26 10° SSW 12:20:16 90° SE 12:24:46 10° NNE daylight
21 Apr - 14:01:52 10° WNW 14:03:58 13° NW 14:06:03 10° NNW daylight
21 Apr - 19:20:46 10° NNE 19:21:46 11° NE 19:22:46 10° NE daylight
21 Apr - 21:01:11 10° NNW 21:05:38 72° ENE 21:10:24 10° SE daylight
21 Apr - 22:46:36 10° W 22:48:15 12° WSW 22:49:56 10° SW daylight
22 Apr - 11:41:23 10° SSW 11:46:07 58° ESE 11:50:32 10° NE daylight
22 Apr - 13:26:22 10° W 13:29:34 18° NW 13:32:38 10° N daylight
22 Apr - 20:27:07 10° NNW 20:31:26 47° NE 20:36:00 10° SE daylight
22 Apr - 22:11:06 10° WNW 22:14:15 19° WSW 22:17:32 10° SSW daylight
23 Apr - 11:07:34 10° S 11:12:01 37° ESE 11:16:11 10° NE daylight
23 Apr - 12:51:19 10° WSW 12:55:12 25° NW 12:58:54 10° N daylight
23 Apr - 19:53:09 10° NNW 19:57:10 32° NE 20:01:23 10° ESE daylight
23 Apr - 21:36:20 10° NW 21:40:12 28° WSW 21:44:19 10° S daylight
